DECAYED

DMSP 5D-2 F13 DEB, 40566 (Decayed)

Orbit data source: Space-Track

DMSP 5D-2 F13 DEB, 40566 was space debris in SSO originally from a launch on Fri, 24 Mar 1995 UTC launched from the Air Force Western Test Range (AFWTR). Debris objects in space refer to the collection of defunct objects orbiting the Earth. Examples of debris include non-operational satellites, rocket bodies, and fragments generated from explosions, collisions, or faulty payload assembly.

Not visible in the next 10 days
Identifier
40566, 1995-015DZ
Orbit
Decayed
Country
Flag of USUS
Related business
Manufacturer
Unknown
Mission
Decayed spacecraft
Bus & Motor
Unknown
Mass
Unknown
Launch date (UTC)
1995-03-24 (30 years ago)
Launch vehicle
Unknown
Launch site
Air Force Western Test Range (AFWTR)
Object type
Payload
Rocket body
Debris
Shape & HBR
Unknown
Radar Cross Section
Small (<0.1 m²)

Expand to show TLE details & history
Last TLE update: 11 months ago

TLE from 11 months ago
0 DMSP 5D-2 F13 DEB
1 40566U 95015DZ  24277.19457528  .06478585  57290-1  37368-1 0  9999
2 40566  98.6213  56.6061 0030997 306.2039  53.6361 15.83306738501359
Epoch: 2024-10-03T04:40Z
TLE epoch observation values (Epoch: 2024-10-03T04:40:11.304Z)
Latitude
Longitude
-25.82409°
Altitude
311.961 km
Speed
7.728 km/s
True Right ascension
03h 46m 25s
True Declination
0° 00' 00"
Sunlit
Object was in full shadow at epoch
Visualization orbit readout
Latitude
Unknown
Longitude
Unknown
Altitude
Unknown
Speed
Unknown
Apparent Right ascension
Unknown
Apparent Declination
Unknown
Sunlit
N/A
Visualization observer readout
Local Sidereal Time
06:57:27
Azimuth
Unknown
Elevation
Unknown
Doppler factor
Unknown
Orbital elements
Apogee altitude
338.793 km
Perigee altitude
297.28 km
Semi-major axis
6,696.173 km
Eccentricity
0.0031
Inclination
98.6213°
RAAN
56.6061°
Arg. of periapsis
306.2039°
True anomaly
53.92279°
Mean anomaly
53.6361°
Eccentric anomaly
53.77938°
Mean motion
3.96098 °/min
Orbital period
90.89 mins
BSTAR
0.037368
Loading maneuver chart data...
Computing Atmospheric mass density...

Documentation

Showing up to 5 results
|